Flag for Trinidad and Tobago Weather past 2 weeks in Chaguanas, Trinidad and Tobago

Now
81 °F

Passing clouds.


Feels Like: 87 °F
Forecast: 77 / 89 °F
Wind: 7 mph from East

Location: Piarco International Airport - Trinidad

Current Time: Sep 2, 2015 at 12:41:49 AM

Latest Report: Sep 1, 2015 at 11:00 PM


Visibility: N/A

Pressure: 29.98 "Hg

Humidity: 89%

Dew point: 77 °F

Location of ChaguanasLocation

Historic Weather in Chaguanas — Graph

°F

Chaguanas temperature yesterday

Maximum temperature yesterday: 91 °F (at 11:00 AM)
Minimum temperature yesterday: 77 °F (at 4:00 AM)
Average temperature yesterday: 83 °F

Past Weeks' High & Low Weather Summary

 TemperatureHumidityPressure
High95 °F (Aug 25, 2:00 PM)100% (Aug 20, 6:00 AM)32.52 "Hg (Aug 20, 6:00 AM)
Low73 °F (Aug 19, 9:00 PM)49% (Aug 25, 12:00 PM)29.80 "Hg (Aug 22, 4:00 PM)
Average83 °F79%29.90 "Hg
* Reported Aug 17 11:00 PM — Sep 1 11:00 PM, Chaguanas, Weather by CustomWeather, © 2015

Note: Actual official high and low records may vary slightly from our data, if they occured in-between our weather recording intervals... More about our weather records

Advertising

Chaguanas weather history for previous 24 hours

 ConditionsComfort  
Time TempWeatherWind HumidityBarometerVisibility
11:00 PM
Tue, Sep 1
81 °FPassing clouds.7 mph89%29.98 "HgN/A
10:00 PM81 °FPassing clouds.6 mph89%29.98 "HgN/A
9:00 PM81 °FPassing clouds.6 mph84%29.95 "HgN/A
8:00 PM82 °FPassing clouds.6 mph79%29.92 "HgN/A
7:00 PM84 °FPassing clouds.7 mph79%29.89 "HgN/A
6:00 PM86 °FPassing clouds.9 mph75%29.89 "HgN/A
5:00 PM86 °FPassing clouds.12 mph70%29.89 "HgN/A
4:00 PM90 °FPassing clouds.8 mph67%29.89 "HgN/A
3:00 PM90 °FScattered showers. Scattered clouds.8 mph71%29.89 "HgN/A
2:00 PM90 °FScattered showers. Scattered clouds.14 mph67%29.92 "HgN/A
1:00 PM84 °FScattered showers. Scattered clouds.8 mph84%29.92 "HgN/A
12:00 PM91 °FPartly sunny.10 mph63%29.95 "HgN/A
11:00 AM91 °FScattered showers. Scattered clouds.13 mph59%29.98 "HgN/A
10:00 AM90 °FScattered clouds.9 mph67%29.98 "HgN/A
7:00 AM79 °FScattered showers. Passing clouds.No wind94%29.95 "HgN/A
6:00 AM77 °FScattered showers. Passing clouds.No wind94%29.95 "HgN/A
5:00 AM77 °FPassing clouds.No wind94%29.92 "HgN/A
4:00 AM77 °FPassing clouds.No wind94%29.92 "HgN/A
3:00 AM79 °FPassing clouds.No wind89%29.92 "HgN/A
2:00 AM79 °FPassing clouds.No wind89%29.95 "HgN/A
1:00 AM79 °FPassing clouds.No wind89%29.95 "HgN/A
12:00 AM79 °FPassing clouds.No wind89%29.98 "HgN/A
Weather by CustomWeather, © 2015

See weather overviewHow to use our weather pages